Wahoo, NE

6:23 PM CDT on April 24, 2017 (GMT -0500)
Wahoo Municipal

Weather History for KAHQ - October, 2012

Change the Weather History Date:

Thursday, October 18, 2012

  Actual Average Record
Temperature  
Mean Temperature 48 °F -  
Max Temperature 52 °F 63 °F 80 °F (1963)
Min Temperature 45 °F 38 °F 25 °F (1992)
Degree Days  
Heating Degree Days 16    
Moisture  
Dew Point 30 °F    
Average Humidity 52    
Maximum Humidity 85    
Minimum Humidity 30    
Precipitation  
Precipitation 0.04 in - - ()
Sea Level Pressure  
Sea Level Pressure 29.57 in    
Wind  
Wind Speed 25 mph (WNW)    
Max Wind Speed 39 mph    
Max Gust Speed 56 mph    
Visibility 10 miles    
Events Rain    
Averages and records for this station are not official NWS values.
T = Trace of Precipitation, MM = Missing Value Source: NWS Daily Summary

Daily Weather History Graph

Daily Weather History Graph

Search for Another Location

Airport or City:

Trip Planner

Search our weather history database for the weather conditions in past years. The results will help you decide how hot, cold, wet, or windy it might be!

Date:

Astronomy

Oct. 18, 2012 Rise Set
Actual Time 7:41 AM CDT 6:40 PM CDT
Civil Twilight 7:14 AM CDT 7:08 PM CDT
Nautical Twilight 6:41 AM CDT 7:40 PM CDT
Astronomical Twilight 6:09 AM CDT 8:12 PM CDT
Moon 11:27 AM CDT (10/18) 9:13 PM CDT (10/18)
Length of Visible Light 11h 54m
Length of Day
10h 58m
Waxing Crescent, 14% of the Moon is Illuminated
Oct 18
Waxing Crescent
Oct 21
First Quarter
Oct 29
Full
Nov 6
Last Quarter
Nov 13
New

Hourly Weather History & Observations

Time (CDT) Temp. Windchill Dew Point Humidity Pressure Visibility Wind Dir Wind Speed Gust Speed Precip Events Conditions
12:15 AM 52.3 °F - 21.6 °F 30% 29.60 in 10.0 mi WNW 21.9 mph 31.1 mph N/A   Clear
12:35 AM 51.8 °F - 22.1 °F 31% 29.60 in 10.0 mi West 20.7 mph 28.8 mph N/A   Clear
12:55 AM 51.3 °F - 22.1 °F 32% 29.59 in 10.0 mi West 20.7 mph 28.8 mph N/A   Clear
1:15 AM 50.9 °F - 22.3 °F 33% 29.58 in 10.0 mi West 21.9 mph 28.8 mph N/A   Clear
1:35 AM 50.5 °F - 21.9 °F 33% 29.58 in 10.0 mi West 20.7 mph 27.6 mph N/A   Clear
1:55 AM 50.5 °F - 21.6 °F 32% 29.58 in 10.0 mi West 20.7 mph 33.4 mph N/A   Clear
2:15 AM 50.0 °F - 21.6 °F 33% 29.57 in 10.0 mi West 20.7 mph 28.8 mph N/A   Clear
2:35 AM 49.5 °F - 21.7 °F 34% 29.57 in 10.0 mi West 19.6 mph 28.8 mph N/A   Clear
2:55 AM 49.1 °F - 21.6 °F 34% 29.57 in 10.0 mi West 23.0 mph 29.9 mph N/A   Clear
3:15 AM 48.7 °F - 21.2 °F 34% 29.56 in 10.0 mi West 21.9 mph 26.5 mph N/A   Clear
3:35 AM 48.9 °F - 21.7 °F 34% 29.56 in 10.0 mi West 21.9 mph 29.9 mph N/A   Clear
3:55 AM 48.7 °F - 22.3 °F 35% 29.56 in 10.0 mi West 23.0 mph 31.1 mph N/A   Clear
4:15 AM 49.1 °F - 22.5 °F 35% 29.55 in 10.0 mi WNW 23.0 mph 34.5 mph N/A   Clear
4:35 AM 49.1 °F - 22.8 °F 36% 29.55 in 10.0 mi WNW 20.7 mph 31.1 mph N/A   Scattered Clouds
4:55 AM 49.1 °F - 22.6 °F 35% 29.55 in 10.0 mi WNW 23.0 mph 32.2 mph N/A   Scattered Clouds
5:15 AM 49.3 °F - 22.6 °F 35% 29.55 in 10.0 mi WNW 21.9 mph 29.9 mph N/A   Clear
5:35 AM 49.1 °F - 22.3 °F 35% 29.54 in 10.0 mi WNW 21.9 mph 32.2 mph N/A   Clear
5:55 AM 48.9 °F - 22.8 °F 36% 29.54 in 10.0 mi WNW 24.2 mph 34.5 mph N/A   Clear
6:15 AM 49.5 °F - 22.3 °F 34% 29.54 in 10.0 mi WNW 27.6 mph 38.0 mph N/A   Mostly Cloudy
6:35 AM 49.3 °F - 22.8 °F 35% 29.53 in 10.0 mi WNW 24.2 mph 34.5 mph N/A   Mostly Cloudy
6:55 AM 49.1 °F - 22.5 °F 35% 29.53 in 10.0 mi WNW 26.5 mph 36.8 mph N/A   Scattered Clouds
7:15 AM 48.7 °F - 23.9 °F 38% 29.53 in 10.0 mi WNW 20.7 mph 27.6 mph N/A   Mostly Cloudy
7:35 AM 50.0 °F - 24.1 °F 36% 29.53 in 10.0 mi WNW 21.9 mph 31.1 mph N/A   Overcast
7:55 AM 50.4 °F - 23.0 °F 34% 29.53 in 10.0 mi WNW 23.0 mph 34.5 mph N/A   Overcast
8:15 AM 50.5 °F - 23.2 °F 34% 29.53 in 10.0 mi WNW 24.2 mph 38.0 mph N/A   Overcast
8:35 AM 50.5 °F - 23.5 °F 35% 29.53 in 10.0 mi WNW 25.3 mph 34.5 mph N/A   Overcast
8:55 AM 50.7 °F - 23.2 °F 34% 29.53 in 10.0 mi WNW 23.0 mph 38.0 mph N/A   Overcast
9:15 AM 50.5 °F - 24.8 °F 37% 29.53 in 7.0 mi WNW 34.5 mph 49.5 mph N/A   Overcast
9:35 AM 50.2 °F - 24.8 °F 37% 29.53 in 10.0 mi WNW 24.2 mph 35.7 mph N/A   Overcast
9:55 AM 50.2 °F - 26.1 °F 39% 29.54 in 10.0 mi NW 29.9 mph 42.6 mph N/A   Overcast
10:15 AM 50.0 °F - 26.4 °F 40% 29.53 in 10.0 mi NW 35.7 mph 44.9 mph N/A   Overcast
10:35 AM 50.0 °F - 26.6 °F 40% 29.54 in 10.0 mi WNW 31.1 mph 43.7 mph N/A   Overcast
10:55 AM 50.7 °F - 27.5 °F 41% 29.53 in 10.0 mi WNW 32.2 mph 46.0 mph N/A   Overcast
11:15 AM 51.3 °F - 27.3 °F 40% 29.53 in 10.0 mi WNW 28.8 mph 42.6 mph N/A   Overcast
11:35 AM 51.1 °F - 28.6 °F 42% 29.53 in 10.0 mi WNW 29.9 mph 38.0 mph N/A   Overcast
11:55 AM 50.9 °F - 29.3 °F 43% 29.54 in 10.0 mi WNW 29.9 mph 46.0 mph N/A   Overcast
12:15 PM 50.5 °F - 30.9 °F 47% 29.54 in 7.0 mi WNW 28.8 mph 46.0 mph N/A   Overcast
12:35 PM 51.1 °F - 31.5 °F 47% 29.54 in 10.0 mi WNW 27.6 mph 41.4 mph N/A   Overcast
12:55 PM 50.9 °F - 31.5 °F 47% 29.53 in 10.0 mi WNW 32.2 mph 50.6 mph N/A   Overcast
1:15 PM 50.2 °F - 32.2 °F 50% 29.53 in 7.0 mi WNW 23.0 mph 46.0 mph N/A   Overcast
1:35 PM 49.8 °F - 32.9 °F 52% 29.53 in 10.0 mi WNW 34.5 mph 44.9 mph N/A   Overcast
1:55 PM 49.6 °F - 33.8 °F 54% 29.53 in 7.0 mi WNW 29.9 mph 48.3 mph N/A Rain Light Rain
2:15 PM 49.6 °F - 34.0 °F 55% 29.52 in 7.0 mi WNW 34.5 mph 56.4 mph N/A   Overcast
2:35 PM 50.4 °F - 33.8 °F 53% 29.52 in 10.0 mi WNW 35.7 mph 49.5 mph N/A   Overcast
2:55 PM 50.4 °F - 34.5 °F 55% 29.52 in 10.0 mi WNW 36.8 mph 50.6 mph N/A   Overcast
3:15 PM 49.6 °F - 36.3 °F 60% 29.53 in 10.0 mi WNW 38.0 mph 49.5 mph N/A Rain Rain
3:35 PM 47.7 °F - 38.7 °F 71% 29.54 in 7.0 mi WNW 34.5 mph 46.0 mph N/A   Drizzle
3:55 PM 47.5 °F - 39.4 °F 73% 29.55 in 10.0 mi NW 28.8 mph 52.9 mph 0.01 in Rain Rain
4:15 PM 47.3 °F - 39.6 °F 74% 29.56 in 10.0 mi NW 27.6 mph 46.0 mph N/A Rain Light Rain
4:35 PM 47.7 °F - 39.4 °F 73% 29.56 in 10.0 mi NW 35.7 mph 42.6 mph N/A   Overcast
4:55 PM 48.2 °F - 38.8 °F 70% 29.57 in 10.0 mi NW 39.1 mph 50.6 mph N/A   Overcast
5:15 PM 48.2 °F - 38.5 °F 69% 29.58 in 10.0 mi NW 29.9 mph 56.4 mph N/A   Overcast
5:35 PM 47.5 °F - 39.2 °F 73% 29.59 in 10.0 mi NW 29.9 mph 46.0 mph N/A   Overcast
5:55 PM 47.1 °F - 39.2 °F 74% 29.60 in 10.0 mi NW 32.2 mph 46.0 mph N/A   Light Drizzle
6:15 PM 47.3 °F - 39.2 °F 73% 29.61 in 10.0 mi NW 25.3 mph 46.0 mph N/A   Overcast
6:35 PM 46.4 °F 37.0 °F 39.6 °F 77% 29.62 in 10.0 mi NW 31.1 mph 42.6 mph N/A   Drizzle
6:55 PM 46.4 °F 37.0 °F 39.6 °F 77% 29.63 in 10.0 mi NW 31.1 mph 41.4 mph N/A   Light Drizzle
7:15 PM 46.4 °F 38.1 °F 39.6 °F 77% 29.64 in 10.0 mi NW 24.2 mph 38.0 mph N/A Rain Light Rain
7:35 PM 45.7 °F 35.7 °F 39.9 °F 80% 29.64 in 10.0 mi NW 33.4 mph 47.2 mph N/A Rain Light Rain
7:55 PM 45.7 °F 37.4 °F 40.1 °F 81% 29.65 in 10.0 mi NW 23.0 mph 38.0 mph N/A   Drizzle
8:15 PM 45.7 °F 37.1 °F 40.1 °F 81% 29.65 in 10.0 mi NW 24.2 mph 35.7 mph N/A   Drizzle
8:35 PM 45.5 °F 36.9 °F 40.1 °F 81% 29.65 in 10.0 mi NW 24.2 mph 35.7 mph 0.01 in   Drizzle
8:55 PM 45.7 °F 36.7 °F 40.1 °F 81% 29.65 in 10.0 mi NW 26.5 mph 39.1 mph 0.01 in Rain Light Rain
9:15 PM 45.7 °F 37.6 °F 40.1 °F 81% 29.65 in 10.0 mi NW 21.9 mph 36.8 mph N/A   Drizzle
9:35 PM 45.5 °F 37.1 °F 40.6 °F 83% 29.65 in 10.0 mi NW 23.0 mph 33.4 mph N/A   Drizzle
9:55 PM 45.1 °F 36.6 °F 40.8 °F 85% 29.65 in 10.0 mi NW 23.0 mph 34.5 mph 0.01 in Rain Light Rain
10:15 PM 45.1 °F 37.3 °F 41.0 °F 85% 29.65 in 10.0 mi NW 19.6 mph 28.8 mph N/A Rain Rain
10:35 PM 45.5 °F 37.8 °F 41.0 °F 84% 29.65 in 10.0 mi NW 19.6 mph 29.9 mph N/A   Drizzle
10:55 PM 45.1 °F 37.1 °F 41.0 °F 85% 29.65 in 7.0 mi NW 20.7 mph 31.1 mph 0.01 in Rain Light Rain